This demonstration page uses our WeatherBlox Daily Observations layout. Learn more.

Left ArrowRight Arrow

47.50024, -111.30081

Hourly Observations for May 7, 2019

Temp ( °F °C ) Dew Point ( °F °C ) Humidity (%) Winds ( mph kmh ) Pressure ( in mb ) Visibility ( mi km ) Precip ( " mm )
12:53 am 00:53 Mostly Clear 36 2.2 35 1.7 97 97 Calm 30.07 1018 10 16 0.00 0.00
1:53 am 01:53 Clear 36 2.2 35 1.7 97 97 SW 5 7 30.06 1018 10 16 0.00 0.00
2:53 am 02:53 Clear 37 2.8 35 1.7 93 93 Calm 30.04 1017 10 16 0.00 0.00
3:53 am 03:53 Clear 36 2.2 34 1.1 93 93 NE 3 6 30.04 1017 10 16 0.00 0.00
4:53 am 04:53 Clear 35 1.7 34 1.1 96 96 E 3 6 30.04 1017 10 16 0.00 0.00
5:53 am 05:53 Clear 32 0 32 0 100 100 NE 5 7 30.03 1017 10 16 0.00 0.00
6:53 am 06:53 Sunny 36 2.2 35 1.7 97 97 E 5 7 30.02 1017 10 16 0.00 0.00
7:53 am 07:53 Sunny 39 3.9 38 3.3 96 96 ESE 3 6 30.04 1017 10 16 0.00 0.00
8:53 am 08:53 Mostly Sunny 42 5.6 40 4.4 92 92 NE 5 7 30.06 1018 10 16 0.00 0.00
9:53 am 09:53 Sunny 49 9.4 38 3.3 66 66 NE 5 7 30.04 1017 10 16 0.00 0.00
10:53 am 10:53 Sunny 52 11.1 40 4.4 64 64 NE 6 9 30.04 1017 10 16 0.00 0.00
11:53 am 11:53 Mostly Cloudy 54 12.2 39 3.9 57 57 ENE 12 19 30.04 1017 10 16 0.00 0.00
12:53 pm 12:53 Mostly Cloudy 55 12.8 39 3.9 55 55 NNE 12 19 30.06 1018 10 16 0.00 0.00
1:53 pm 13:53 Partly Cloudy 58 14.4 36 2.2 44 44 NE 9 15 30.04 1017 10 16 0.00 0.00
2:53 pm 14:53 Sunny 59 15 34 1.1 39 39 NE 13 20 30.04 1017 10 16 0.00 0.00
3:53 pm 15:53 Mostly Cloudy 60 15.6 34 1.1 38 38 NE 14 22 30.04 1017 10 16 0.00 0.00
4:53 pm 16:53 Mostly Cloudy 59 15 32 0 36 36 N 15 24 30.05 1018 10 16 0.00 0.00
5:53 pm 17:53 Partly Cloudy 58 14.4 30 -1.1 35 35 NNE 16 26 30.07 1018 10 16 0.00 0.00
6:53 pm 18:53 Mostly Cloudy 55 12.8 30 -1.1 38 38 N 16 26 30.09 1019 10 16 0.00 0.00
7:53 pm 19:53 Cloudy 54 12.2 32 0 43 43 NNE 14 22 30.11 1020 10 16 0.00 0.00
8:53 pm 20:53 Cloudy 52 11.1 33 0.6 49 49 NNE 8 13 30.13 1020 10 16 0.00 0.00
9:53 pm 21:53 Mostly Cloudy 49 9.4 32 0 52 52 NNE 12 19 30.14 1021 10 16 0.00 0.00
10:53 pm 22:53 Mostly Cloudy 47 8.3 35 1.7 63 63 NNE 14 22 30.15 1021 10 16 0.00 0.00
11:53 pm 23:53 Cloudy 44 6.7 36 2.2 73 73 N 10 17 30.16 1021 10 16 0.00 0.00

Powered by AerisWeather